When you browse on this site, cookies collect data to enhance your experience and personalize the content and advertising you see.
Visit our Privacy Policy to learn more. By continuing to use the site, you agree to this use of cookies and data.
  • In Hungary
  • List of Countries
  • For 7 days
  • Water Temperature
  • Satellite Maps
  • Weather Map
  • News
  • Weather Widgets
  • user-avatar
    Login

    Hourly Weather Lagos

    Today, 20 November, Tuesday

    Time Temperature Precipitation Wind Pressure Humidity
    00:00 +29°C° 0 mm 3 mps 754 mmHg 80%
    01:00 +29°C° 0 mm 3 mps 754 mmHg 81%
    02:00 +29°C° 0 mm 3 mps 754 mmHg 82%
    03:00 +29°C° 0 mm 3 mps 754 mmHg 83%
    04:00 +29°C° 0 mm 3 mps 754 mmHg 83%
    05:00 +29°C° 0 mm 3 mps 754 mmHg 83%
    06:00 +29°C° 0 mm 3 mps 755 mmHg 83%
    07:00 +30°C° 0 mm 3 mps 755 mmHg 77%
    08:00 +31°C° 0 mm 3 mps 755 mmHg 70%
    09:00 +34°C° 0 mm 3 mps 756 mmHg 64%
    10:00 +34°C° 0 mm 3 mps 756 mmHg 61%
    11:00 +35°C° 0 mm 3 mps 755 mmHg 58%
    12:00 +36°C° 0 mm 3 mps 755 mmHg 55%
    13:00 +36°C° 0 mm 3 mps 754 mmHg 56%
    14:00 +36°C° 0 mm 3 mps 754 mmHg 56%
    15:00 +36°C° 0 mm 3 mps 753 mmHg 56%
    16:00 +34°C° 0 mm 3 mps 753 mmHg 63%
    17:00 +33°C° 0 mm 3 mps 753 mmHg 69%
    18:00 +30°C° 0 mm 4 mps 754 mmHg 75%
    19:00 +30°C° 0 mm 4 mps 754 mmHg 77%
    20:00 +30°C° 0 mm 4 mps 755 mmHg 79%
    21:00 +30°C° 0 mm 5 mps 755 mmHg 81%
    22:00 +29°C° 0 mm 5 mps 755 mmHg 82%
    23:00 +29°C° 0 mm 5 mps 755 mmHg 83%

    Tomorrow, 21 November, Wednesday

    Time Temperature Precipitation Wind Pressure Humidity
    00:00 +29°C° 0 mm 5 mps 755 mmHg 84%
    01:00 +29°C° 0 mm 5 mps 754 mmHg 84%
    02:00 +29°C° 0 mm 5 mps 754 mmHg 85%
    03:00 +29°C° 0 mm 5 mps 754 mmHg 85%
    04:00 +29°C° 0 mm 4 mps 754 mmHg 85%
    05:00 +29°C° 0 mm 4 mps 754 mmHg 85%
    06:00 +29°C° 0 mm 4 mps 755 mmHg 84%
    07:00 +30°C° 0.1 mm 4 mps 755 mmHg 79%
    08:00 +31°C° 0.1 mm 3 mps 756 mmHg 74%
    09:00 +33°C° 0.1 mm 3 mps 756 mmHg 69%
    10:00 +34°C° 0.1 mm 4 mps 756 mmHg 64%
    11:00 +35°C° 0.1 mm 4 mps 755 mmHg 59%
    12:00 +36°C° 0.1 mm 4 mps 755 mmHg 55%
    13:00 +36°C° 0.4 mm 4 mps 754 mmHg 58%
    14:00 +35°C° 0.4 mm 5 mps 753 mmHg 60%
    15:00 +34°C° 0.4 mm 5 mps 753 mmHg 63%
    16:00 +33°C° 0 mm 5 mps 753 mmHg 68%
    17:00 +32°C° 0 mm 5 mps 753 mmHg 72%
    18:00 +30°C° 0 mm 5 mps 754 mmHg 76%
    19:00 +30°C° 0 mm 5 mps 754 mmHg 78%
    20:00 +30°C° 0 mm 5 mps 755 mmHg 80%
    21:00 +30°C° 0 mm 5 mps 756 mmHg 82%
    22:00 +29°C° 0 mm 5 mps 755 mmHg 83%
    23:00 +29°C° 0 mm 5 mps 755 mmHg 84%

    Day after tomorrow, 22 November, Thursday

    Time Temperature Precipitation Wind Pressure Humidity
    00:00 +29°C° 0 mm 5 mps 755 mmHg 86%
    01:00 +29°C° 0 mm 5 mps 754 mmHg 86%
    02:00 +29°C° 0 mm 5 mps 754 mmHg 86%
    03:00 +29°C° 0 mm 5 mps 753 mmHg 86%
    04:00 +29°C° 0.1 mm 5 mps 753 mmHg 86%
    05:00 +29°C° 0.1 mm 4 mps 754 mmHg 86%
    06:00 +29°C° 0.1 mm 4 mps 754 mmHg 86%
    07:00 +30°C° 0.1 mm 4 mps 755 mmHg 80%
    08:00 +32°C° 0.1 mm 4 mps 755 mmHg 74%
    09:00 +33°C° 0.1 mm 4 mps 755 mmHg 68%
    10:00 +34°C° 0.5 mm 4 mps 755 mmHg 67%
    11:00 +34°C° 0.5 mm 4 mps 754 mmHg 65%
    12:00 +34°C° 0.5 mm 5 mps 754 mmHg 64%
    13:00 +34°C° 0.6 mm 5 mps 753 mmHg 65%
    14:00 +34°C° 0.6 mm 5 mps 753 mmHg 66%
    15:00 +34°C° 0.6 mm 5 mps 752 mmHg 67%
    16:00 +33°C° 0 mm 4 mps 753 mmHg 71%
    17:00 +30°C° 0 mm 4 mps 753 mmHg 75%
    18:00 +29°C° 0 mm 4 mps 753 mmHg 80%
    19:00 +29°C° 0.5 mm 4 mps 754 mmHg 82%
    20:00 +29°C° 0.5 mm 4 mps 755 mmHg 84%
    21:00 +29°C° 0.5 mm 4 mps 755 mmHg 86%
    22:00 +28°C° 0.3 mm 5 mps 755 mmHg 87%
    23:00 +28°C° 0.3 mm 5 mps 755 mmHg 87%

    23 November, Friday

    Time Temperature Precipitation Wind Pressure Humidity
    00:00 +28°C° 0.3 mm 5 mps 754 mmHg 88%
    01:00 +28°C° 0.3 mm 5 mps 754 mmHg 88%
    02:00 +28°C° 0.3 mm 4 mps 753 mmHg 88%
    03:00 +28°C° 0.3 mm 4 mps 753 mmHg 88%
    04:00 +28°C° 0.1 mm 4 mps 753 mmHg 88%
    05:00 +28°C° 0.1 mm 4 mps 754 mmHg 87%
    06:00 +28°C° 0.1 mm 3 mps 754 mmHg 87%
    07:00 +29°C° 0 mm 3 mps 755 mmHg 80%
    08:00 +31°C° 0 mm 3 mps 755 mmHg 73%
    09:00 +33°C° 0 mm 3 mps 755 mmHg 67%
    10:00 +34°C° 0 mm 3 mps 755 mmHg 62%
    11:00 +35°C° 0 mm 3 mps 754 mmHg 58%
    12:00 +36°C° 0 mm 3 mps 754 mmHg 53%
    13:00 +36°C° 0 mm 3 mps 753 mmHg 55%
    14:00 +35°C° 0 mm 3 mps 753 mmHg 57%
    15:00 +35°C° 0 mm 4 mps 752 mmHg 59%
    16:00 +34°C° 0 mm 3 mps 752 mmHg 64%
    17:00 +31°C° 0 mm 3 mps 753 mmHg 70%
    18:00 +30°C° 0 mm 3 mps 753 mmHg 75%
    19:00 +30°C° 0 mm 3 mps 754 mmHg 77%
    20:00 +29°C° 0 mm 3 mps 754 mmHg 78%
    21:00 +29°C° 0 mm 3 mps 755 mmHg 79%
    22:00 +29°C° 0 mm 3 mps 754 mmHg 80%
    23:00 +29°C° 0 mm 3 mps 754 mmHg 81%

    24 November, Saturday

    Time Temperature Precipitation Wind Pressure Humidity
    00:00 +29°C° 0 mm 4 mps 754 mmHg 82%
    01:00 +29°C° 0 mm 3 mps 753 mmHg 82%
    02:00 +28°C° 0 mm 3 mps 753 mmHg 83%
    03:00 +28°C° 0 mm 3 mps 753 mmHg 84%
    04:00 +28°C° 0 mm 3 mps 753 mmHg 84%
    05:00 +28°C° 0 mm 3 mps 754 mmHg 85%
    06:00 +28°C° 0 mm 3 mps 754 mmHg 85%
    07:00 +29°C° 0 mm 3 mps 755 mmHg 79%
    08:00 +31°C° 0 mm 3 mps 755 mmHg 73%
    09:00 +33°C° 0 mm 3 mps 756 mmHg 67%
    10:00 +33°C° 0 mm 3 mps 755 mmHg 65%
    11:00 +34°C° 0 mm 3 mps 755 mmHg 63%
    12:00 +34°C° 0 mm 3 mps 754 mmHg 61%
    13:00 +34°C° 0 mm 3 mps 754 mmHg 60%
    14:00 +35°C° 0 mm 3 mps 753 mmHg 59%
    15:00 +35°C° 0 mm 3 mps 753 mmHg 58%
    16:00 +34°C° 0 mm 3 mps 753 mmHg 64%
    17:00 +31°C° 0 mm 3 mps 753 mmHg 69%
    18:00 +30°C° 0 mm 3 mps 753 mmHg 74%
    19:00 +30°C° 0 mm 3 mps 754 mmHg 76%
    20:00 +30°C° 0 mm 4 mps 754 mmHg 78%
    21:00 +29°C° 0 mm 4 mps 755 mmHg 80%
    22:00 +29°C° 0 mm 4 mps 754 mmHg 81%
    23:00 +29°C° 0 mm 4 mps 754 mmHg 82%

    25 November, Sunday

    Time Temperature Precipitation Wind Pressure Humidity
    00:00 +29°C° 0 mm 4 mps 754 mmHg 83%
    01:00 +29°C° 0 mm 4 mps 754 mmHg 84%
    02:00 +29°C° 0 mm 3 mps 753 mmHg 84%
    03:00 +28°C° 0 mm 3 mps 753 mmHg 85%
    04:00 +28°C° 0 mm 3 mps 753 mmHg 85%
    05:00 +28°C° 0 mm 3 mps 754 mmHg 85%
    06:00 +28°C° 0 mm 3 mps 754 mmHg 85%
    07:00 +29°C° 0 mm 3 mps 755 mmHg 82%
    08:00 +30°C° 0 mm 3 mps 755 mmHg 78%
    09:00 +31°C° 0 mm 2 mps 755 mmHg 75%
    10:00 +33°C° 0.1 mm 3 mps 755 mmHg 69%
    11:00 +34°C° 0.1 mm 3 mps 754 mmHg 63%
    12:00 +36°C° 0.1 mm 3 mps 754 mmHg 57%
    13:00 +35°C° 0.1 mm 3 mps 753 mmHg 59%
    14:00 +35°C° 0.1 mm 3 mps 752 mmHg 60%
    15:00 +35°C° 0.1 mm 4 mps 752 mmHg 61%
    16:00 +33°C° 0 mm 4 mps 752 mmHg 66%
    17:00 +32°C° 0 mm 4 mps 752 mmHg 71%
    18:00 +30°C° 0 mm 4 mps 753 mmHg 76%
    19:00 +30°C° 0 mm 4 mps 753 mmHg 78%
    20:00 +30°C° 0 mm 4 mps 753 mmHg 79%
    21:00 +29°C° 0 mm 5 mps 754 mmHg 81%
    22:00 +29°C° 0 mm 5 mps 754 mmHg 82%
    23:00 +29°C° 0 mm 5 mps 753 mmHg 83%
    Show more